Location: *
(58.4167°N, 22.5000°E)
Time: 19:59:48
(UTC+00:00)

Cosmos 2061 Rocket - Pass Details

Date: 22 September 2019
Orbit: 965 x 1013 km, 82.9° (Epoch: 22 October)

Event Time Altitude Azimuth Distance (km) Brightness Sun altitude
Rises 20:08:40 0° 346° (NNW) 3,760 8.1 -25.7°
Reaches altitude 10° 20:11:19 10° 352° (N) 2,803 7.2 -25.9°
Maximum altitude 20:17:36 52° 68° (ENE) 1,240 4.4 -26.4°
Enters shadow 20:18:18 49° 90° (E) 1,270 4.3 -26.5°
